Weather History for Mountain Home, ID

Change the Weather History Date:

Thursday, August 1, 2013

  Actual Average Record
Temperature  
Mean Temperature 77 °F 78 °F  
Max Temperature 92 °F 95 °F 106 °F (1992)
Min Temperature 61 °F 59 °F 39 °F (1957)
Degree Days  
Heating Degree Days 0 0  
Month to date heating degree days 0 0  
Cooling Degree Days 12 13  
Month to date cooling degree days 12 13  
Growing Degree Days 26 (Base 50)    
Moisture  
Dew Point 40 °F    
Average Humidity 27    
Maximum Humidity 48    
Minimum Humidity 11    
Precipitation  
Precipitation 0.06 in 0.01 in 0.26 in (1960)
Month to date precipitation 0.06 0.01  
Sea Level Pressure  
Sea Level Pressure 29.79 in    
Wind  
Wind Speed 14 mph (NW)    
Max Wind Speed 41 mph    
Max Gust Speed 52 mph    
Visibility 9 miles    
Events Rain    
T = Trace of Precipitation, MM = Missing Value Source: NWS Daily Summary

Daily Weather History Graph

Daily Weather History Graph

Search for Another Location

Airport:

Trip Planner

Search our weather history database for the weather conditions in past years. The results will help you decide how hot, cold, wet, or windy it might be!

Date:

Astronomy

Aug. 01, 2013 Rise Set
Actual Time 6:34 AM MDT 9:04 PM MDT
Civil Twilight 6:02 AM MDT 9:36 PM MDT
Nautical Twilight 5:22 AM MDT 10:16 PM MDT
Astronomical Twilight 4:36 AM MDT 11:01 PM MDT
Moon 2:13 AM MDT (8/1) 5:17 PM MDT (8/1)
Length of Visible Light 15h 34m
Length of Day
14h 29m
Waning Crescent, 23% of the Moon is Illuminated
Aug 1
Waning Crescent
Aug 6
New
Aug 14
First Quarter
Aug 20
Full
Aug 28
Last Quarter

Hourly Weather History & Observations

Time (MDT) Temp. Dew Point Humidity Pressure Visibility Wind Dir Wind Speed Gust Speed Precip Events Conditions
12:58 AM 74.7 °F 39.0 °F 28% 29.75 in 10.0 mi West 9.2 mph - N/A   Scattered Clouds
1:58 AM 75.0 °F 38.3 °F 26% 29.76 in 10.0 mi WNW 12.7 mph - N/A   Scattered Clouds
2:58 AM 73.2 °F 38.3 °F 28% 29.76 in 10.0 mi NW 10.4 mph - N/A   Clear
3:58 AM 69.3 °F 39.4 °F 34% 29.78 in 10.0 mi North 5.8 mph - N/A   Mostly Cloudy
4:58 AM 69.1 °F 40.1 °F 35% 29.78 in 10.0 mi NNW 15.0 mph - N/A   Mostly Cloudy
5:58 AM 69.1 °F 40.6 °F 36% 29.78 in 10.0 mi North 6.9 mph - N/A   Clear
6:58 AM 62.8 °F 40.3 °F 44% 29.81 in 10.0 mi West 9.2 mph - N/A   Clear
7:58 AM 68.5 °F 40.8 °F 36% 29.80 in 10.0 mi WNW 9.2 mph - N/A   Clear
8:58 AM 74.1 °F 40.3 °F 29% 29.80 in 10.0 mi NW 6.9 mph - N/A   Clear
9:58 AM 80.2 °F 41.4 °F 25% 29.79 in 10.0 mi NNW 9.2 mph - N/A   Clear
10:58 AM 84.9 °F 40.6 °F 21% 29.79 in 10.0 mi WNW 19.6 mph 24.2 mph N/A   Clear
11:58 AM 86.5 °F 41.5 °F 21% 29.78 in 10.0 mi North 12.7 mph 21.9 mph N/A   Clear
12:58 PM 88.2 °F 40.3 °F 19% 29.77 in 10.0 mi WNW 4.6 mph 20.7 mph N/A   Clear
1:58 PM 90.0 °F 40.1 °F 17% 29.75 in 10.0 mi West 13.8 mph 20.7 mph N/A   Partly Cloudy
2:58 PM 89.4 °F 40.5 °F 18% 29.75 in 10.0 mi West 15.0 mph 19.6 mph N/A   Clear
3:19 PM 91.4 °F 41.0 °F 17% 29.84 in 10.0 mi West 12.7 mph 20.7 mph N/A   Clear
3:34 PM 89.6 °F 39.2 °F 17% 29.83 in 10.0 mi West 15.0 mph 33.4 mph N/A   Clear
3:58 PM 90.1 °F 37.8 °F 16% 29.73 in 10.0 mi WNW 9.2 mph 17.3 mph N/A   Clear
4:58 PM 91.0 °F 34.0 °F 13% 29.71 in 10.0 mi West 9.2 mph - N/A   Clear
5:58 PM 91.8 °F 29.8 °F 11% 29.70 in 10.0 mi West 10.4 mph 18.4 mph N/A   Partly Cloudy
6:58 PM 90.7 °F 28.9 °F 11% 29.71 in 10.0 mi WNW 11.5 mph - N/A   Clear
7:43 PM 86.0 °F 32.0 °F 14% 29.82 in 0.1 mi NW 32.2 mph 46.0 mph N/A   Light Blowing Widespread Dust
7:55 PM 75.2 °F 53.6 °F 47% 29.78 in 1.0 mi NW 40.3 mph 49.5 mph N/A Rain Light Rain
8:13 PM 71.6 °F 46.4 °F 41% 29.85 in 1.0 mi NNW 41.4 mph 51.8 mph N/A Rain Light Rain
8:42 PM 73.4 °F 41.0 °F 31% 29.85 in 4.0 mi NNW 34.5 mph 48.3 mph N/A   Widespread Dust
8:58 PM 72.9 °F 41.4 °F 32% 29.80 in 4.0 mi NNW 34.5 mph 46.0 mph 0.06 in   Widespread Dust
9:23 PM 71.6 °F 41.0 °F 33% 29.89 in 7.0 mi NNW 31.1 mph 39.1 mph N/A   Scattered Clouds
9:58 PM 71.8 °F 40.8 °F 33% 29.82 in 10.0 mi NNW 23.0 mph - N/A   Clear
10:58 PM 67.6 °F 41.4 °F 38% 29.85 in 10.0 mi West 13.8 mph - N/A   Clear
11:58 PM 63.5 °F 43.7 °F 48% 29.88 in 10.0 mi West 12.7 mph - N/A   Clear